Fitchburg, MA

12:48 PM EDT on July 19, 2019 (GMT -0400)
Fitchburg Municipal

Weather History for KFIT - May, 2019

Change the Weather History Date:

Sunday, May 12, 2019

  Actual Average (KORH) Record (KORH)
Temperature  
Mean Temperature 47 °F -  
Max Temperature 50 °F 66 °F 88 °F (1959)
Min Temperature 43 °F 44 °F 29 °F (1907)
Degree Days  
Heating Degree Days 18    
Moisture  
Dew Point 37 °F    
Average Humidity 75    
Maximum Humidity 93    
Minimum Humidity 43    
Precipitation  
Precipitation 0.18 in - - ()
Sea Level Pressure  
Sea Level Pressure 30.04 in    
Wind  
Wind Speed 3 mph (SE)    
Max Wind Speed 8 mph    
Max Gust Speed -    
Visibility 9 miles    
Events Rain    
Averages and records for this station are not official NWS values.
T = Trace of Precipitation, MM = Missing Value Source: NWS Daily Summary

Daily Weather History Graph

Daily Weather History Graph

Search for Another Location

Airport or City:

Astronomy

May. 12, 2019 Rise Set
Actual Time 5:28 AM EDT 7:58 PM EDT
Civil Twilight 4:56 AM EDT 8:30 PM EDT
Nautical Twilight 4:16 AM EDT 9:10 PM EDT
Astronomical Twilight 3:32 AM EDT 9:56 PM EDT
Moon 12:46 PM EDT (5/12) 2:18 AM EDT (5/12)
Length of Visible Light 15h 34m
Length of Day
14h 30m
First Quarter, 57% of the Moon is Illuminated
May 12
First Quarter
May 18
Full
May 26
Last Quarter
Jun 3
New
Jun 10
First Quarter

Hourly Weather History & Observations

Time (EDT) Temp. Windchill Dew Point Humidity Pressure Visibility Wind Dir Wind Speed Gust Speed Precip Events Conditions
12:52 AM 51.1 °F - 28.9 °F 43% 30.08 in 10.0 mi North 4.6 mph - N/A   Clear
1:52 AM 50.0 °F - 30.0 °F 46% 30.08 in 10.0 mi Calm Calm - N/A   Clear
2:52 AM 48.9 °F - 32.0 °F 52% 30.07 in 10.0 mi NNW 5.8 mph - N/A   Clear
3:52 AM 48.9 °F - 32.0 °F 52% 30.06 in 10.0 mi Calm Calm - N/A   Overcast
4:52 AM 48.9 °F - 30.9 °F 50% 30.07 in 10.0 mi Calm Calm - N/A   Overcast
5:52 AM 48.0 °F - 33.1 °F 56% 30.08 in 10.0 mi Calm Calm - N/A   Overcast
6:52 AM 48.0 °F - 34.0 °F 58% 30.10 in 10.0 mi North 3.5 mph - N/A   Overcast
7:52 AM 46.0 °F 41.9 °F 32.0 °F 58% 30.12 in 9.0 mi NE 8.1 mph - 0.00 in Rain Light Rain
8:18 AM 44.1 °F 41.5 °F 35.1 °F 71% 30.12 in 4.0 mi ENE 4.6 mph - 0.01 in Rain Light Rain
8:52 AM 44.1 °F 41.5 °F 36.0 °F 73% 30.11 in 8.0 mi East 4.6 mph - 0.04 in Rain Light Rain
9:18 AM 44.1 °F 41.5 °F 37.0 °F 76% 30.10 in 10.0 mi East 4.6 mph - 0.01 in Rain Light Rain
9:52 AM 44.1 °F 42.5 °F 36.0 °F 73% 30.10 in 10.0 mi SSE 3.5 mph - 0.01 in   Overcast
10:52 AM 43.0 °F - 36.0 °F 76% 30.11 in 5.0 mi Calm Calm - 0.03 in Rain Light Rain
11:00 AM 44.1 °F - 37.0 °F 76% 30.09 in 5.0 mi Calm Calm - 0.00 in Rain Light Rain
11:52 AM 43.0 °F 38.2 °F 37.9 °F 82% 30.08 in 10.0 mi South 8.1 mph - 0.02 in Rain Light Rain
12:34 PM 43.0 °F 40.3 °F 37.0 °F 80% 30.06 in 10.0 mi South 4.6 mph - 0.00 in Rain Light Rain
12:52 PM 43.0 °F 41.3 °F 37.0 °F 80% 30.06 in 10.0 mi South 3.5 mph - 0.00 in Rain Light Rain
1:01 PM 43.0 °F 41.3 °F 37.0 °F 80% 30.05 in 10.0 mi South 3.5 mph - 0.00 in   Overcast
1:15 PM 43.0 °F 41.3 °F 36.0 °F 76% 30.05 in 10.0 mi SE 3.5 mph - 0.00 in   Overcast
1:52 PM 43.0 °F 40.3 °F 37.0 °F 80% 30.04 in 10.0 mi South 4.6 mph - 0.00 in   Overcast
2:10 PM 44.1 °F 41.5 °F 37.0 °F 76% 30.03 in 10.0 mi SSE 4.6 mph - N/A   Overcast
2:52 PM 43.0 °F - 37.0 °F 80% 30.02 in 10.0 mi Calm Calm - 0.00 in Rain Light Rain
3:52 PM 43.0 °F 39.5 °F 39.0 °F 86% 29.99 in 8.0 mi South 5.8 mph - 0.04 in Rain Light Rain
4:52 PM 43.0 °F 41.3 °F 39.0 °F 86% 29.98 in 10.0 mi SSE 3.5 mph - 0.02 in   Overcast
5:02 PM 43.0 °F 39.5 °F 39.0 °F 86% 29.98 in 10.0 mi SSE 5.8 mph - N/A   Overcast
5:14 PM 43.0 °F 40.3 °F 39.0 °F 86% 29.97 in 10.0 mi SSE 4.6 mph - N/A   Overcast
5:25 PM 43.0 °F 40.3 °F 39.0 °F 86% 29.98 in 10.0 mi SSE 4.6 mph - N/A   Overcast
5:52 PM 43.0 °F 41.3 °F 39.0 °F 86% 29.99 in 10.0 mi SSW 3.5 mph - N/A   Overcast
6:52 PM 43.0 °F 41.3 °F 39.0 °F 86% 29.99 in 10.0 mi SE 3.5 mph - N/A   Overcast
7:02 PM 43.0 °F - 39.0 °F 86% 29.98 in 10.0 mi Calm Calm - 0.00 in Rain Light Rain
7:52 PM 43.0 °F - 39.9 °F 89% 30.01 in 9.0 mi Calm Calm - 0.00 in Rain Light Rain
8:52 PM 43.0 °F 40.3 °F 41.0 °F 93% 29.97 in 10.0 mi SE 4.6 mph - 0.02 in   Mostly Cloudy
9:52 PM 43.0 °F - 39.9 °F 89% 29.98 in 10.0 mi Calm Calm - N/A   Overcast
10:43 PM 44.1 °F - 39.9 °F 85% 29.97 in 10.0 mi Calm Calm - N/A   Overcast
10:52 PM 44.1 °F - 39.9 °F 85% 29.98 in 10.0 mi Calm Calm - N/A   Overcast
11:52 PM 44.1 °F - 41.0 °F 89% 29.99 in 10.0 mi Calm Calm - N/A   Overcast